Helicity
55 76 48 17 5 7 47 16 24 29 27 24 14 52 184 -10 67 75 71 24 21 32 21 39 -15 17 36 38 44 40 52 78 60 -22 -13 -3 -7 -0 5 6 5 -13 -4 -5
94 42 27 17 16 30 58 60 59 33 24 24 11 8 61 75 69 66 61 28 13 15 44 40 -6 14 24 45 44 48 58 84 47 19 11 14 -2 -12 6 -3 -17 -2 -2 -7
72 61 42 58 57 65 53 50 42 40 25 29 36 16 115 292 80 41 31 36 26 27 54 48 33 15 18 47 55 60 62 76 61 36 44 44 30 34 12 22 -10 -3 -1 -1
62 19 63 53 77 53 73 36 57 53 44 61 30 33 17 171 29 52 44 56 20 28 23 59 60 38 40 43 64 79 66 70 53 54 50 39 17 -10 -4 -1 -5 31 -5 2
64 52 70 86 74 45 70 30 21 62 69 64 29 54 37 88 141 82 40 23 38 47 48 74 91 89 73 68 75 81 98 74 61 53 38 64 15 6 -6 -0 100 10 9 -7
50 27 23 37 34 50 31 47 46 32 54 111 63 38 44 69 79 84 73 39 35 48 75 56 78 86 57 72 79 83 116 101 81 69 13 54 37 11 1 9 54 -12 -2 15
8 43 38 29 40 24 53 58 139 132 132 90 33 54 46 41 80 53 88 53 62 48 53 61 51 68 82 83 91 110 161 134 109 94 59 90 62 -0 63 70 -19 -11 -13 8
57 31 16 30 46 35 60 55 162 116 125 88 32 71 53 33 37 130 37 87 71 56 55 49 55 83 105 80 139 131 182 173 153 142 100 69 68 67 33 53 -2 -25 -8 1
64 65 67 27 17 38 34 81 38 55 28 39 45 16 30 29 20 60 95 68 75 71 45 68 71 60 87 101 133 177 190 203 143 159 169 125 74 -32 63 49 -3 32 22 37
118 152 108 42 74 94 55 39 67 67 134 93 39 26 52 39 43 41 28 29 39 46 58 49 52 83 80 91 114 155 168 209 189 169 189 173 126 54 85 89 66 -11 8 37
176 155 101 49 81 75 68 139 78 66 52 83 70 53 33 38 69 48 61 24 47 32 60 49 58 65 102 70 75 107 140 139 155 139 166 154 149 97 79 109 93 13 49 65
96 154 107 59 -11 5 26 52 44 94 77 65 53 49 57 50 61 15 31 29 27 16 27 52 69 66 80 74 75 107 122 102 105 120 161 156 170 150 94 55 29 71 3 53
153 136 127 112 77 52 77 80 100 62 53 61 81 58 48 101 101 33 9 12 37 73 69 55 56 68 57 87 64 84 106 111 86 87 119 153 152 137 133 87 83 80 69 63
160 183 276 172 104 155 133 39 65 75 90 64 62 53 73 19 56 130 162 192 195 187 162 145 51 49 53 68 126 102 107 98 98 102 73 128 152 135 137 154 116 111 100 89
55 135 143 126 143 148 191 225 210 135 130 167 84 57 56 72 72 190 133 112 175 138 244 146 100 30 64 77 124 132 58 97 118 136 115 128 156 155 150 151 138 124 107 93
37 78 200 152 159 118 211 190 216 266 264 237 179 179 176 153 106 87 90 118 138 112 155 226 289 221 72 65 69 91 77 61 86 174 158 128 158 156 147 143 131 129 128 115
39 81 112 159 78 74 165 175 118 111 104 175 220 147 82 41 26 114 81 114 135 135 93 130 232 225 247 122 44 34 82 30 61 124 164 149 142 141 124 136 151 141 139 131
9 9 50 108 110 199 81 83 82 94 67 47 99 129 74 42 99 194 102 -19 83 119 100 100 121 137 105 93 90 61 48 63 18 100 157 172 181 134 132 137 135 159 158 145
-3 20 31 67 120 75 62 197 205 247 133 192 40 13 74 107 113 150 80 -30 -63 -2 52 83 90 115 88 105 114 104 96 74 65 63 117 176 175 158 135 144 161 161 157 139
-13 -8 41 46 99 119 58 101 71 115 153 232 325 296 312 347 195 148 183 45 -38 -7 -28 20 43 189 -14 97 79 84 56 116 84 66 108 163 175 155 138 149 179 187 176 145
-13 -32 -5 34 73 60 88 40 63 115 156 225 211 302 264 152 255 295 340 107 45 26 31 75 39 58 78 89 98 68 41 94 111 49 101 142 145 141 114 104 119 158 166 123
-6 -5 22 19 45 61 73 33 71 106 90 92 122 80 133 117 98 179 290 163 96 87 54 97 119 112 159 189 190 67 80 75 154 120 92 137 160 137 123 98 94 86 121 138
-4 -8 -22 -4 69 83 81 39 69 55 26 27 85 103 71 85 75 78 163 146 103 96 70 91 163 112 177 287 444 97 101 170 177 144 117 113 138 159 152 133 129 107 100 88
-7 -1 -19 -114 -49 63 88 66 25 68 42 35 41 33 82 78 118 87 159 155 161 137 125 105 118 151 277 396 549 681 583 214 156 122 120 109 117 156 176 151 109 80 54 42
23 19 25 3 -42 29 56 73 77 47 47 44 69 56 51 84 101 150 193 211 205 189 181 154 137 158 239 306 494 652 734 650 260 146 127 116 117 114 152 171 146 145 103 86
44 36 27 16 -19 -29 38 81 91 38 34 47 35 96 93 106 102 117 196 200 223 231 216 165 145 149 216 309 398 548 616 629 442 236 223 165 128 126 113 127 243 301 170 107
Wind_Speed
36 47 43 45 59 67 60 64 71 47 46 44 82 45 25 8 11 11 14 37 44 50 46 36 44 35 27 23 21 35 29 26 23 64 63 62 59 55 50 47 34 41 39 41
40 63 56 58 58 64 73 62 64 74 54 49 63 78 32 21 20 11 13 33 45 52 53 45 46 40 38 29 22 25 41 28 59 66 66 60 60 57 53 49 47 46 44 42
60 46 56 66 65 64 67 68 60 62 55 66 64 83 43 39 58 17 13 21 33 46 51 54 51 43 40 39 31 24 50 33 44 63 59 59 57 53 55 39 48 49 46 44
58 54 42 63 69 62 69 60 69 63 67 57 66 86 88 24 60 21 25 22 30 38 47 51 52 52 43 40 28 30 42 39 33 72 21 56 59 62 58 55 52 38 49 45
64 60 73 64 71 64 73 60 61 67 70 74 63 70 78 37 35 29 29 26 30 39 47 48 54 48 41 34 32 37 37 46 39 34 70 25 69 60 58 58 9 48 38 48
68 63 62 77 61 62 68 67 67 63 71 89 85 79 69 56 36 33 33 29 28 33 37 45 42 43 39 34 34 39 40 44 43 32 84 26 18 68 63 45 15 50 40 32
62 72 73 59 68 64 61 69 73 76 80 89 76 89 77 52 38 44 37 34 31 29 30 40 52 48 46 44 39 36 39 40 35 33 30 60 38 77 61 18 61 42 49 36
67 69 70 64 71 69 69 69 77 81 78 82 79 84 93 66 33 46 41 38 33 35 30 35 49 47 46 47 40 40 39 41 38 36 34 31 30 52 74 58 60 57 56 33
64 77 40 70 70 78 69 88 81 89 82 89 72 82 75 84 71 33 71 33 35 36 34 33 35 45 44 45 42 41 43 43 42 40 40 36 32 74 31 62 63 64 60 47
54 73 61 53 64 71 86 69 90 95 101 99 80 74 75 78 73 71 53 54 32 31 33 33 34 39 44 43 40 38 44 46 44 47 44 38 36 40 70 43 64 69 67 58
58 61 76 59 65 82 81 90 80 85 97 97 83 72 62 61 64 62 61 47 46 47 32 32 30 33 36 37 38 39 40 48 50 51 46 41 37 35 35 51 36 80 66 51
51 66 80 80 63 73 91 88 99 91 91 98 90 76 35 44 46 52 65 58 53 49 43 35 28 30 33 43 44 39 39 42 47 53 54 47 42 39 36 39 36 25 29 20
56 65 79 83 80 77 85 85 82 99 93 93 94 78 24 34 38 38 44 54 49 53 60 57 38 32 31 39 43 44 36 37 43 51 51 54 52 44 40 36 34 30 25 21
57 72 80 84 63 59 75 94 88 88 102 99 94 78 35 28 31 23 25 27 34 39 48 53 44 32 31 30 34 35 37 33 37 45 51 52 51 46 44 40 37 36 30 26
64 83 83 86 82 74 76 75 75 86 90 93 90 80 73 51 34 30 37 39 41 41 44 49 58 48 34 29 28 35 39 31 33 41 49 49 48 49 49 48 41 42 37 30
64 77 79 90 82 79 87 87 88 92 96 95 91 84 70 47 36 42 47 45 46 45 44 46 48 51 46 37 31 29 39 38 34 35 41 50 50 47 46 48 45 42 38 34
58 63 73 91 79 88 104 95 92 95 97 100 104 83 72 62 54 50 45 48 49 50 48 50 52 55 59 58 37 27 30 35 36 37 40 50 51 51 47 45 46 42 40 38
63 60 60 71 69 94 80 66 74 85 88 98 102 98 81 70 61 62 48 47 52 55 56 55 56 56 57 61 66 41 28 37 44 37 37 42 46 47 46 46 45 44 43 41
41 64 63 69 78 70 61 53 60 69 75 61 92 94 86 59 72 77 60 51 56 60 63 63 63 66 63 67 70 69 31 32 41 45 43 37 41 42 44 43 43 45 48 48
34 38 69 70 73 85 48 46 47 57 91 55 54 63 68 71 81 50 59 63 63 64 65 68 69 73 69 70 71 73 64 33 43 57 45 38 43 44 42 42 43 43 47 49
19 37 66 67 82 75 40 43 53 78 74 61 61 66 74 81 79 80 74 67 65 65 65 65 63 67 72 73 75 77 73 39 36 36 36 40 43 46 43 42 42 40 41 45
14 19 29 42 78 97 47 58 70 59 61 65 68 70 73 78 78 81 76 69 64 64 63 62 62 62 61 65 75 72 69 58 40 32 36 38 42 47 43 40 36 35 37 40
19 21 10 13 29 48 51 63 67 69 68 67 74 72 72 76 78 79 76 71 64 60 59 57 60 58 56 56 55 59 57 51 42 38 39 37 37 46 48 39 35 31 31 36
23 30 19 19 17 66 62 66 60 61 70 73 71 73 72 73 74 75 71 69 65 60 58 56 55 55 56 51 48 47 51 55 49 44 46 41 35 40 44 39 37 33 29 29
26 27 17 1 17 68 52 61 67 71 73 75 76 73 73 71 73 70 68 66 63 61 58 54 53 52 52 51 51 50 52 56 58 55 49 44 37 35 37 41 39 39 40 36
27 30 27 14 5 11 64 64 67 70 71 72 72 73 71 69 71 66 65 63 63 62 59 53 50 49 49 49 50 52 51 52 62 63 56 47 40 35 34 35 42 43 38 41
Wind_Direction
257 256 249 253 254 253 261 256 249 255 254 259 219 251 264 163 161 153 147 148 155 161 161 161 161 162 168 173 209 230 230 233 233 180 175 190 186 189 192 192 227 192 181 164
260 254 256 257 258 255 253 259 257 245 252 258 251 238 258 259 247 201 161 150 156 160 162 163 165 166 167 171 190 219 232 232 219 208 199 202 196 181 190 192 197 187 180 174
255 269 257 255 255 255 255 254 258 255 256 250 255 241 251 250 256 229 212 156 156 162 165 167 168 171 172 171 175 205 232 232 233 220 219 217 216 216 200 228 201 182 170 168
259 260 269 252 254 254 254 256 255 257 251 252 251 245 238 221 190 224 237 172 162 161 167 169 170 173 177 177 201 224 232 234 234 218 230 227 221 208 204 198 178 133 179 169
258 257 256 258 255 254 253 259 255 254 254 252 252 251 247 239 239 235 226 185 174 164 166 170 175 177 181 196 206 228 230 235 236 228 220 237 215 220 212 201 293 217 151 190
266 261 261 254 259 257 255 255 256 255 252 248 245 249 252 249 234 233 219 205 194 178 172 173 175 175 185 202 209 227 229 233 234 228 205 229 215 216 216 212 267 170 166 141
266 259 258 255 252 250 253 245 247 247 247 247 248 247 248 251 240 246 209 212 206 207 193 175 173 176 179 188 199 210 220 225 217 221 206 237 244 215 233 259 194 167 177 156
269 258 252 249 249 247 245 241 243 245 248 249 249 245 241 249 265 241 236 219 223 224 214 187 178 178 180 184 197 214 216 222 214 208 212 207 233 245 227 239 216 191 204 153
270 260 286 245 248 247 243 242 247 251 254 250 251 248 252 245 252 259 247 221 221 221 222 200 192 184 183 184 192 205 223 223 223 216 226 225 208 192 244 237 213 226 228 248
274 263 264 256 252 249 247 252 243 245 244 246 249 248 246 243 246 245 251 249 237 215 225 227 201 192 188 188 192 207 224 225 224 228 227 221 208 192 240 249 240 214 225 244
276 270 254 259 250 247 246 247 250 248 242 243 247 251 257 245 244 249 243 251 248 253 236 236 217 202 198 196 195 201 216 230 231 232 229 225 221 209 215 247 249 224 239 257
283 269 256 253 259 256 248 249 243 243 241 241 246 250 297 252 241 249 247 246 251 252 249 246 228 223 204 187 187 194 205 214 228 235 234 230 227 224 217 201 200 234 187 252
285 264 258 254 256 259 250 246 249 242 246 241 238 240 281 260 258 255 246 247 253 256 252 250 253 233 215 189 186 186 198 210 227 235 233 236 235 226 223 209 215 220 218 221
280 264 258 253 261 268 253 243 244 246 240 239 239 240 246 254 251 248 256 263 266 265 260 254 252 242 234 210 198 196 193 207 225 231 233 234 232 227 226 229 227 232 227 220
270 261 261 259 262 260 253 249 244 242 241 242 240 243 243 272 258 253 258 267 271 271 269 259 253 252 244 237 217 197 194 210 217 232 235 233 232 233 235 235 230 239 237 226
271 262 264 257 259 257 252 248 247 247 244 246 245 246 244 268 275 266 259 260 265 267 270 265 261 258 256 251 241 208 196 198 205 226 232 238 235 233 229 235 234 236 237 234
273 266 262 255 258 256 249 246 247 248 246 244 240 244 250 250 265 273 266 262 262 267 271 269 264 261 261 257 255 225 207 203 200 233 235 241 239 237 234 232 234 232 233 239
267 265 267 260 260 248 251 254 256 251 248 246 245 247 252 264 264 264 271 267 266 268 271 270 267 267 264 259 256 257 224 201 196 204 233 234 235 235 235 235 233 236 239 238
201 264 262 258 254 256 255 260 253 248 242 267 248 244 250 271 262 258 270 271 271 272 272 270 270 266 265 262 256 255 239 220 203 198 203 220 229 231 233 227 230 239 245 249
191 192 261 257 256 248 261 265 268 260 242 260 259 252 254 258 247 262 275 273 273 275 274 273 275 269 265 262 257 254 254 231 203 195 201 227 235 236 232 231 233 237 245 250
170 196 238 259 253 256 277 274 268 247 245 261 263 262 260 256 262 267 272 271 274 274 276 276 277 272 266 262 257 253 252 238 212 207 216 231 236 240 240 241 240 238 239 250
98 156 183 236 258 251 283 275 258 264 268 268 266 264 265 262 263 262 267 269 273 275 278 277 276 275 276 273 263 253 252 253 246 232 224 224 235 241 240 239 236 236 240 246
75 50 134 156 292 283 277 273 272 274 270 269 267 266 265 262 260 260 263 266 269 275 277 279 276 277 281 280 278 259 257 244 245 243 237 232 228 239 242 234 235 227 234 242
60 31 37 224 199 275 275 275 277 275 267 268 270 264 264 262 262 259 264 265 265 270 275 279 279 277 275 281 279 273 267 252 248 245 244 238 227 233 237 236 238 234 220 220
40 23 26 350 220 275 285 283 276 273 269 266 266 265 261 262 260 261 263 264 264 266 272 275 278 277 278 282 279 276 272 264 252 248 246 239 232 221 227 239 240 240 246 246
41 32 34 56 217 220 262 283 278 266 264 263 265 263 258 259 258 262 263 265 265 262 267 272 275 278 281 284 282 275 273 270 255 247 246 240 236 230 224 223 249 251 248 252